When you browse on this site, cookies collect data to enhance your experience and personalize the content and advertising you see.
Visit our Privacy Policy to learn more. By continuing to use the site, you agree to this use of cookies and data.
  • In Schweiz
  • Länderverzeichnis
  • Für 7 Tage
  • Wassertemperatur
  • Satellitenkarten
  • Wetterkarte
  • Widgets
  • user-avatar
    Anmelden

    Stündliche Wetter Gaborone

    Heute, 24 Januar, Donnerstag

    Zeit Temperatur Niederschläge Wind Luftdruck Luftfeuchtigkeit
    00:00 +31°C° 0 mm 1 m/S 674 mmHg 34%
    01:00 +31°C° 0 mm 1 m/S 674 mmHg 34%
    02:00 +29°C° 0 mm 0 m/S 675 mmHg 36%
    03:00 +29°C° 0 mm 0 m/S 675 mmHg 36%
    04:00 +30°C° 0 mm 1 m/S 675 mmHg 36%
    05:00 +30°C° 0 mm 1 m/S 675 mmHg 36%
    06:00 +31°C° 0 mm 1 m/S 675 mmHg 35%
    07:00 +31°C° 0 mm 1 m/S 675 mmHg 34%
    08:00 +31°C° 0 mm 1 m/S 676 mmHg 33%
    09:00 +34°C° 0 mm 2 m/S 676 mmHg 29%
    10:00 +35°C° 0 mm 3 m/S 676 mmHg 25%
    11:00 +37°C° 0 mm 3 m/S 677 mmHg 21%
    12:00 +39°C° 0 mm 3 m/S 676 mmHg 20%
    13:00 +40°C° 0 mm 2 m/S 676 mmHg 18%
    14:00 +41°C° 0 mm 2 m/S 676 mmHg 16%
    15:00 +40°C° 0 mm 2 m/S 675 mmHg 17%
    16:00 +40°C° 0 mm 2 m/S 675 mmHg 18%
    17:00 +39°C° 0 mm 1 m/S 674 mmHg 18%
    18:00 +38°C° 0 mm 2 m/S 674 mmHg 20%
    19:00 +36°C° 0 mm 2 m/S 674 mmHg 22%
    20:00 +35°C° 0 mm 2 m/S 674 mmHg 24%
    21:00 +34°C° 0 mm 2 m/S 674 mmHg 26%
    22:00 +32°C° 0 mm 2 m/S 675 mmHg 29%
    23:00 +31°C° 0 mm 2 m/S 675 mmHg 31%

    Morgen, 25 Januar, Freitag

    Zeit Temperatur Niederschläge Wind Luftdruck Luftfeuchtigkeit
    00:00 +30°C° 0 mm 3 m/S 675 mmHg 34%
    01:00 +30°C° 0 mm 4 m/S 675 mmHg 37%
    02:00 +29°C° 0 mm 5 m/S 675 mmHg 40%
    03:00 +29°C° 0 mm 5 m/S 675 mmHg 42%
    04:00 +28°C° 0 mm 4 m/S 675 mmHg 43%
    05:00 +27°C° 0 mm 4 m/S 676 mmHg 44%
    06:00 +27°C° 0 mm 4 m/S 676 mmHg 43%
    07:00 +28°C° 0 mm 5 m/S 677 mmHg 42%
    08:00 +28°C° 0 mm 5 m/S 677 mmHg 41%
    09:00 +29°C° 0 mm 5 m/S 677 mmHg 41%
    10:00 +30°C° 0 mm 5 m/S 678 mmHg 40%
    11:00 +32°C° 0 mm 5 m/S 678 mmHg 40%
    12:00 +34°C° 0 mm 5 m/S 677 mmHg 36%
    13:00 +35°C° 0 mm 6 m/S 677 mmHg 33%
    14:00 +38°C° 0 mm 6 m/S 677 mmHg 30%
    15:00 +37°C° 0 mm 5 m/S 676 mmHg 28%
    16:00 +39°C° 0 mm 5 m/S 676 mmHg 26%
    17:00 +39°C° 0 mm 5 m/S 675 mmHg 24%
    18:00 +35°C° 0.8 mm 6 m/S 675 mmHg 33%
    19:00 +32°C° 0.8 mm 7 m/S 675 mmHg 43%
    20:00 +28°C° 0.8 mm 8 m/S 675 mmHg 53%
    21:00 +28°C° 1 mm 7 m/S 675 mmHg 55%
    22:00 +27°C° 1 mm 5 m/S 676 mmHg 56%
    23:00 +27°C° 1 mm 3 m/S 676 mmHg 57%

    übermorgen, 26 Januar, Samstag

    Zeit Temperatur Niederschläge Wind Luftdruck Luftfeuchtigkeit
    00:00 +27°C° 0 mm 3 m/S 676 mmHg 58%
    01:00 +26°C° 0 mm 3 m/S 675 mmHg 58%
    02:00 +26°C° 0 mm 3 m/S 675 mmHg 59%
    03:00 +26°C° 0.4 mm 3 m/S 675 mmHg 61%
    04:00 +25°C° 0.4 mm 3 m/S 675 mmHg 63%
    05:00 +24°C° 0.4 mm 3 m/S 675 mmHg 65%
    06:00 +25°C° 0.2 mm 4 m/S 676 mmHg 63%
    07:00 +25°C° 0.2 mm 5 m/S 676 mmHg 60%
    08:00 +26°C° 0.2 mm 7 m/S 677 mmHg 57%
    09:00 +28°C° 0 mm 6 m/S 677 mmHg 51%
    10:00 +30°C° 0 mm 6 m/S 678 mmHg 45%
    11:00 +33°C° 0 mm 6 m/S 678 mmHg 39%
    12:00 +35°C° 0 mm 5 m/S 678 mmHg 35%
    13:00 +36°C° 0 mm 5 m/S 677 mmHg 31%
    14:00 +39°C° 0 mm 5 m/S 677 mmHg 27%
    15:00 +39°C° 0 mm 6 m/S 676 mmHg 26%
    16:00 +39°C° 0 mm 7 m/S 675 mmHg 25%
    17:00 +39°C° 0 mm 7 m/S 675 mmHg 24%
    18:00 +34°C° 2.2 mm 8 m/S 674 mmHg 38%
    19:00 +31°C° 2.2 mm 8 m/S 674 mmHg 53%
    20:00 +26°C° 2.2 mm 8 m/S 674 mmHg 68%
    21:00 +26°C° 2.5 mm 6 m/S 675 mmHg 65%
    22:00 +26°C° 2.5 mm 5 m/S 675 mmHg 62%
    23:00 +26°C° 2.5 mm 4 m/S 676 mmHg 59%

    27 Januar, Sonntag

    Zeit Temperatur Niederschläge Wind Luftdruck Luftfeuchtigkeit
    00:00 +26°C° 0.2 mm 4 m/S 676 mmHg 60%
    01:00 +26°C° 0.2 mm 4 m/S 676 mmHg 62%
    02:00 +26°C° 0.2 mm 4 m/S 676 mmHg 64%
    03:00 +25°C° 0 mm 4 m/S 676 mmHg 68%
    04:00 +23°C° 0 mm 4 m/S 676 mmHg 73%
    05:00 +23°C° 0 mm 5 m/S 676 mmHg 78%
    06:00 +23°C° 0.1 mm 5 m/S 677 mmHg 78%
    07:00 +23°C° 0.1 mm 6 m/S 677 mmHg 78%
    08:00 +23°C° 0.1 mm 7 m/S 677 mmHg 77%
    09:00 +23°C° 0 mm 6 m/S 678 mmHg 74%
    10:00 +24°C° 0 mm 6 m/S 678 mmHg 70%
    11:00 +26°C° 0 mm 6 m/S 678 mmHg 66%
    12:00 +27°C° 0 mm 6 m/S 677 mmHg 61%
    13:00 +29°C° 0 mm 5 m/S 677 mmHg 56%
    14:00 +30°C° 0 mm 4 m/S 676 mmHg 51%
    15:00 +32°C° 0 mm 4 m/S 676 mmHg 49%
    16:00 +32°C° 0 mm 4 m/S 676 mmHg 46%
    17:00 +33°C° 0 mm 3 m/S 675 mmHg 44%
    18:00 +32°C° 0.1 mm 4 m/S 675 mmHg 48%
    19:00 +30°C° 0.1 mm 4 m/S 675 mmHg 51%
    20:00 +28°C° 0.1 mm 5 m/S 675 mmHg 54%
    21:00 +27°C° 0.8 mm 4 m/S 675 mmHg 62%
    22:00 +26°C° 0.8 mm 4 m/S 676 mmHg 69%
    23:00 +23°C° 0.8 mm 4 m/S 676 mmHg 77%

    28 Januar, Montag

    Zeit Temperatur Niederschläge Wind Luftdruck Luftfeuchtigkeit
    00:00 +23°C° 0.1 mm 5 m/S 676 mmHg 77%
    01:00 +22°C° 0.1 mm 6 m/S 676 mmHg 77%
    02:00 +22°C° 0.1 mm 7 m/S 676 mmHg 77%
    03:00 +22°C° 0 mm 6 m/S 677 mmHg 77%
    04:00 +21°C° 0 mm 6 m/S 677 mmHg 78%
    05:00 +21°C° 0 mm 5 m/S 677 mmHg 79%
    06:00 +21°C° 0 mm 5 m/S 677 mmHg 77%
    07:00 +22°C° 0 mm 5 m/S 677 mmHg 76%
    08:00 +22°C° 0 mm 5 m/S 678 mmHg 75%
    09:00 +22°C° 0 mm 5 m/S 678 mmHg 73%
    10:00 +23°C° 0 mm 5 m/S 678 mmHg 71%
    11:00 +23°C° 0 mm 4 m/S 678 mmHg 69%
    12:00 +26°C° 0 mm 4 m/S 678 mmHg 64%
    13:00 +27°C° 0 mm 4 m/S 677 mmHg 59%
    14:00 +28°C° 0 mm 3 m/S 677 mmHg 53%
    15:00 +30°C° 0 mm 3 m/S 677 mmHg 49%
    16:00 +31°C° 0 mm 3 m/S 676 mmHg 45%
    17:00 +33°C° 0 mm 3 m/S 676 mmHg 41%
    18:00 +30°C° 0 mm 3 m/S 676 mmHg 45%
    19:00 +29°C° 0 mm 3 m/S 676 mmHg 49%
    20:00 +27°C° 0 mm 3 m/S 675 mmHg 53%
    21:00 +27°C° 0 mm 3 m/S 676 mmHg 55%
    22:00 +26°C° 0 mm 3 m/S 676 mmHg 57%
    23:00 +26°C° 0 mm 3 m/S 676 mmHg 59%

    29 Januar, Dienstag

    Zeit Temperatur Niederschläge Wind Luftdruck Luftfeuchtigkeit
    00:00 +25°C° 0 mm 3 m/S 676 mmHg 62%
    01:00 +24°C° 0 mm 3 m/S 676 mmHg 64%
    02:00 +24°C° 0 mm 3 m/S 676 mmHg 67%
    03:00 +22°C° 0 mm 3 m/S 677 mmHg 69%
    04:00 +23°C° 0 mm 2 m/S 677 mmHg 71%
    05:00 +21°C° 0 mm 2 m/S 677 mmHg 73%
    06:00 +22°C° 0 mm 3 m/S 678 mmHg 71%
    07:00 +22°C° 0 mm 4 m/S 678 mmHg 68%
    08:00 +23°C° 0 mm 4 m/S 679 mmHg 66%
    09:00 +26°C° 0 mm 4 m/S 679 mmHg 59%
    10:00 +28°C° 0 mm 4 m/S 679 mmHg 52%
    11:00 +30°C° 0 mm 4 m/S 679 mmHg 45%
    12:00 +31°C° 0 mm 3 m/S 679 mmHg 41%
    13:00 +33°C° 0 mm 3 m/S 678 mmHg 37%
    14:00 +35°C° 0 mm 3 m/S 678 mmHg 34%
    15:00 +35°C° 0 mm 2 m/S 677 mmHg 32%
    16:00 +35°C° 0 mm 2 m/S 677 mmHg 31%
    17:00 +34°C° 0 mm 1 m/S 677 mmHg 29%
    18:00 +33°C° 0 mm 1 m/S 677 mmHg 32%
    19:00 +31°C° 0 mm 1 m/S 676 mmHg 34%
    20:00 +30°C° 0 mm 1 m/S 676 mmHg 37%
    21:00 +29°C° 0 mm 1 m/S 676 mmHg 39%
    22:00 +28°C° 0 mm 2 m/S 676 mmHg 41%
    23:00 +28°C° 0 mm 2 m/S 676 mmHg 43%
    Mehr zeigen